{"data":{"norad_id":49171,"intl_designator":"2021-082AT","name":"STARLINK-3107","alt_names":[],"object_type":"PAYLOAD","status":"ACTIVE","operator":null,"country":"US","launch_date":"2021-09-14","launch_site_code":"AFWTR","launch_vehicle":null,"mission":null,"orbit_class":"UNKNOWN","rcs_meters":null,"size_class":null,"mass_kg":null,"dimensions":null,"purposes":["comms"],"wikipedia_slug":null,"has_3d_model":false,"image_url":null,"decayed_at":null,"tle_current":{"epoch":"2026-09-19T09:21:20.448864Z","epoch_age_seconds":100180,"freshness":"FRESH","line1":"1 49171U 21082AT  26262.38982001  .00007766  00000+0  39571-3 0  9997","line2":"2 49171  69.9941 147.1373 0006511 272.8642  87.1781 15.17128285276627","mean_motion":15.17128285,"eccentricity":0.0006511,"inclination_deg":69.9941,"raan_deg":147.1373,"arg_perigee_deg":272.8642,"mean_anomaly_deg":87.1781,"bstar":0.00039571,"rev_number":27662,"period_min":94.916165906168,"perigee_km":510.03701139513,"apogee_km":519.0126356217,"semimajor_km":6892.6618235084,"source":"CELESTRAK","updated_at":"2026-09-20T09:00:39.253336Z"}}}